Home > Time Zones > World Clock > Weather > Iran > Tabriz > Past weeks

Flag for Iran Weather past 2 weeks in Tabriz, Iran

Now
63 °F

Sandstorm.


Feels Like: 63 °F
Forecast: 53 / 70 °F
Wind: 22 mph from Southwest

Location: Tabriz Airport

Current Time: Apr 21, 2015 at 2:37:28 PM

Latest Report: Apr 21, 2015 at 2:00 PM


Visibility: 2 mi

Pressure: 29.89 "Hg

Humidity: 34%

Dew point: 34 °F

Location of TabrizLocation

Historic Weather in Tabriz — Graph

°F

Tabriz temperature yesterday

Maximum temperature yesterday: 68 °F (at 2:00 PM)
Minimum temperature yesterday: 48 °F (at 5:00 AM)
Average temperature yesterday: 59 °F

Past Weeks' High & Low Weather Summary

 TemperatureHumidityPressure
High77 °F (Apr 9, 3:30 PM)100% (Apr 11, 8:00 AM)30.27 "Hg (Apr 11, 8:00 AM)
Low34 °F (Apr 15, 5:00 AM)16% (Apr 7, 5:30 PM)29.83 "Hg (Apr 10, 3:30 PM)
Average55 °F49%30.01 "Hg
* Reported Apr 6 1:30 PM — Apr 21 1:30 PM, Tabriz, Weather by CustomWeather, © 2015

Note: Actual official high and low records may vary slightly from our data, if they occured in-between our weather recording intervals... More about our weather records

Advertising

Tabriz weather history for previous 24 hours

 ConditionsComfort  
Time TempWeatherWind HumidityBarometerVisibility
1:30 PM
Tue, Apr 21
63 °FSandstorm.21 mph34%29.89 "Hg2 mi
1:00 PM64 °FSandstorm.22 mph30%29.86 "Hg3 mi
12:30 PM64 °FSandstorm.29 mph30%29.86 "Hg3 mi
12:00 PM66 °FScattered clouds.24 mph26%29.86 "Hg4 mi
11:30 AM66 °FScattered clouds.18 mph26%29.86 "Hg4 mi
11:00 AM64 °FScattered clouds.18 mph32%29.86 "Hg4 mi
10:30 AM63 °FPartly sunny.16 mph32%29.89 "Hg4 mi
10:00 AM59 °FPartly sunny.14 mph45%29.89 "Hg4 mi
9:30 AM57 °FPartly sunny.5 mph44%29.89 "Hg4 mi
9:00 AM55 °FPartly sunny.7 mph47%29.89 "Hg4 mi
8:30 AM55 °FScattered clouds.5 mph44%29.89 "Hg4 mi
8:00 AM54 °FPassing clouds.7 mph51%29.89 "Hg4 mi
7:30 AM52 °FPassing clouds.5 mph54%29.89 "Hg4 mi
7:00 AM52 °FPassing clouds.12 mph50%29.89 "Hg4 mi
6:30 AM54 °FPassing clouds.12 mph47%29.89 "HgN/A
6:00 AM55 °FPassing clouds.16 mph41%29.89 "HgN/A
5:30 AM57 °FPassing clouds.18 mph36%29.89 "HgN/A
5:00 AM55 °FPassing clouds.14 mph38%29.86 "HgN/A
4:30 AM54 °FPassing clouds.7 mph44%29.86 "HgN/A
4:00 AM50 °FPassing clouds.7 mph50%29.89 "HgN/A
3:30 AM50 °FPassing clouds.5 mph50%29.89 "HgN/A
3:00 AM50 °FPassing clouds.12 mph50%29.86 "HgN/A
2:30 AM52 °FPassing clouds.7 mph47%29.89 "HgN/A
2:00 AM52 °FPassing clouds.7 mph47%29.89 "HgN/A
1:30 AM50 °FPassing clouds.9 mph50%29.92 "HgN/A
1:00 AM55 °FPassing clouds.7 mph38%29.92 "HgN/A
12:30 AM57 °FPassing clouds.12 mph39%29.92 "HgN/A
12:00 AM55 °FPassing clouds.12 mph44%29.95 "HgN/A
11:30 PM
Mon, Apr 20
55 °FPassing clouds.9 mph44%29.95 "HgN/A
11:00 PM57 °FPassing clouds.12 mph36%29.95 "HgN/A
10:30 PM59 °FPassing clouds.12 mph36%29.95 "HgN/A
10:00 PM61 °FPassing clouds.18 mph34%29.92 "HgN/A
9:30 PM61 °FPassing clouds.22 mph34%29.92 "HgN/A
9:00 PM61 °FScattered clouds.16 mph29%29.89 "HgN/A
8:30 PM63 °FScattered clouds.22 mph27%29.89 "HgN/A
8:00 PM63 °FScattered showers. Scattered clouds.22 mph22%29.89 "HgN/A
7:30 PM63 °FPartly sunny.21 mph24%29.89 "HgN/A
7:00 PM64 °FPartly sunny.18 mph24%29.89 "HgN/A
6:30 PM64 °FPartly sunny.18 mph26%29.89 "HgN/A
6:00 PM64 °FPartly sunny.21 mph26%29.89 "HgN/A
5:30 PM66 °FPartly sunny.22 mph22%29.89 "HgN/A
5:00 PM68 °FScattered clouds.16 mph24%29.89 "HgN/A
4:30 PM68 °FScattered clouds.22 mph23%29.89 "HgN/A
4:00 PM68 °FScattered clouds.18 mph26%29.86 "HgN/A
3:30 PM68 °FScattered clouds.18 mph23%29.89 "HgN/A
3:00 PM68 °FScattered clouds.12 mph23%29.89 "HgN/A
2:30 PM66 °FScattered clouds.14 mph24%29.89 "HgN/A
2:00 PM68 °FPartly sunny.14 mph24%29.92 "HgN/A
Weather by CustomWeather, © 2015

See weather overviewHow to use our weather pages